Wind_Speed
21 21 20 19 19 19 20 20 21 23 24 24 24 23 22 23 23 24 24 23 23 23 23 24 23 22 21 21 22 22 22 22 22 22 22 22 21 21 21 21 22 24 25 27 28 29 29 30 30 29 28 27 26 25 25 24 24 23 23 23 23 22 22 22 21 21 21 21 22 23 24 24 24 23 23 24 24 23 23 23 23 24 25 24 24 23
22 21 21 21 21 21 23 23 24 25 25 25 24 24 23 23 23 22 22 22 21 21 21 22 22 21 20 21 21 22 22 22 22 22 23 23 23 22 22 22 22 23 23 24 25 26 27 27 28 28 27 27 26 25 25 24 23 23 23 22 22 22 22 21 21 22 22 22 23 23 24 24 23 23 23 24 24 24 23 22 22 23 24 24 24 23
22 22 22 21 21 21 22 22 23 23 23 23 23 22 22 22 21 20 18 17 17 17 18 18 19 20 21 21 22 23 23 22 22 22 23 24 24 24 24 23 23 23 23 23 23 24 24 24 25 25 25 25 25 24 24 24 23 23 23 23 23 23 23 23 23 24 24 24 24 24 24 24 23 23 24 25 25 24 23 22 22 23 23 24 24 24
23 23 23 22 22 22 22 21 21 20 21 21 21 21 21 21 21 20 18 17 16 16 16 16 17 18 20 21 22 23 24 24 23 22 23 23 24 25 25 25 25 24 24 24 24 23 23 23 24 24 24 24 24 24 24 25 25 25 25 25 25 25 25 25 25 25 25 25 24 24 24 24 23 23 24 25 25 24 23 22 22 23 23 23 24 23
24 24 24 23 23 23 23 22 21 20 19 19 20 20 20 21 21 21 20 20 20 20 20 19 18 18 19 21 23 24 25 25 24 23 23 23 24 25 25 26 26 26 25 25 25 25 25 25 25 25 25 26 26 26 26 26 26 26 26 26 26 26 26 26 26 25 25 24 24 24 24 24 23 23 24 25 24 24 23 23 23 23 23 23 23 23
25 24 24 24 24 24 24 23 22 21 20 20 19 19 19 19 20 21 21 21 22 22 23 23 22 21 21 22 23 25 26 27 26 25 23 23 23 24 25 25 26 26 26 26 26 26 26 26 27 27 27 27 27 27 27 27 27 26 26 26 26 26 26 25 25 25 24 24 24 24 24 24 23 23 24 24 24 24 24 24 23 23 23 23 23 23
25 25 24 24 24 24 24 24 23 22 21 21 20 19 19 19 19 21 22 22 22 22 23 23 22 22 22 23 23 24 26 27 27 26 25 24 24 24 24 25 25 25 26 26 26 26 26 27 27 27 27 27 27 27 26 26 26 25 25 25 25 24 24 24 24 24 23 23 23 24 24 24 24 24 24 25 25 25 25 25 24 23 23 23 24 24
25 25 24 23 23 23 23 24 23 22 22 22 22 22 21 21 20 21 21 22 22 22 21 21 21 21 21 21 22 22 22 24 25 26 25 25 24 25 25 25 25 25 26 26 26 26 26 27 27 27 27 27 26 26 25 25 25 24 24 23 23 23 23 24 23 23 23 23 23 24 24 24 25 25 25 26 26 26 26 25 24 23 23 23 24 24
24 24 24 24 23 23 23 24 23 23 22 23 23 24 24 23 22 21 20 20 20 20 19 19 19 20 19 19 19 20 20 22 23 24 24 24 25 25 26 26 26 26 26 26 26 26 27 27 27 27 27 26 26 25 25 25 24 24 23 23 23 23 24 24 24 23 23 23 23 23 24 25 25 26 26 27 27 27 27 26 25 24 23 23 24 24
24 24 24 25 24 23 23 24 24 24 23 23 23 23 23 23 22 21 20 19 18 17 17 17 18 19 19 18 18 18 19 21 22 23 23 24 24 25 26 26 27 27 27 27 27 27 27 27 27 27 27 27 26 26 26 25 25 25 24 24 24 24 25 25 25 24 24 23 23 23 24 25 26 26 27 28 28 28 27 26 25 24 24 24 24 24
23 24 24 24 24 24 24 24 24 24 23 22 21 21 21 20 19 18 18 19 19 18 18 18 19 19 19 18 18 18 18 19 19 20 21 22 23 23 24 25 26 26 27 27 28 28 28 29 29 29 29 28 28 28 27 27 26 26 26 26 26 26 26 26 26 26 25 25 24 24 25 26 27 27 28 29 29 29 28 27 26 25 25 24 24 23
21 21 21 22 22 22 22 23 24 24 22 20 18 18 18 18 18 17 18 19 20 21 21 22 21 21 20 20 19 19 18 18 18 18 19 20 21 21 22 23 24 25 26 27 27 28 29 29 30 30 30 30 30 30 29 29 28 28 28 28 28 28 28 28 28 27 27 26 25 25 25 26 27 28 29 29 30 30 29 28 27 26 25 25 24 24
20 20 20 21 21 20 20 21 21 20 19 18 17 16 18 19 19 19 20 21 22 22 23 23 23 23 23 23 22 21 19 18 17 17 18 18 20 21 21 22 23 23 24 25 26 28 29 30 30 31 32 32 32 31 31 31 31 30 30 30 30 30 30 30 29 29 28 28 27 26 26 27 28 29 30 30 31 31 30 29 28 27 26 25 25 25
20 19 19 19 19 19 19 19 18 18 18 18 18 19 20 20 20 20 20 21 22 23 22 22 23 23 22 22 23 22 21 19 18 17 17 18 19 19 20 20 21 22 23 23 25 27 28 28 29 30 31 32 32 32 32 32 32 32 32 32 32 32 32 32 31 31 30 29 28 27 27 28 29 30 31 31 32 32 31 30 28 27 26 26 26 25
18 18 16 16 17 18 18 18 18 19 19 20 20 20 20 20 19 19 19 20 21 21 21 21 22 23 22 21 21 22 22 20 18 17 16 17 18 18 18 18 19 20 21 22 23 25 25 26 27 28 29 30 31 31 31 32 32 33 33 33 33 33 33 33 33 32 31 30 29 28 28 28 29 30 31 32 33 33 32 31 29 28 27 26 26 26
19 17 16 15 16 18 19 19 19 19 20 20 20 20 19 19 19 18 18 18 19 19 19 18 18 18 20 20 20 21 21 21 19 18 17 17 18 18 18 18 19 20 21 21 22 22 22 23 24 25 26 27 28 29 29 30 30 31 32 32 33 33 34 34 33 33 32 31 30 29 29 29 29 30 31 32 33 33 32 31 29 28 27 27 26 26
20 19 18 17 17 18 19 19 20 20 20 20 20 20 20 19 19 19 18 18 17 16 15 14 8 6 10 16 18 19 20 20 19 18 17 17 18 19 19 20 20 21 21 22 22 22 21 21 22 23 24 25 26 27 27 28 28 29 29 30 31 32 33 33 33 33 32 32 31 30 29 29 29 30 30 31 32 33 32 30 29 29 28 27 27 27
21 20 19 18 18 19 20 19 20 20 20 20 20 20 20 20 20 20 19 19 17 14 12 11 8 4 3 9 11 12 16 18 18 16 16 17 17 18 18 20 21 22 22 22 22 22 21 21 21 21 22 23 24 25 26 27 27 27 27 28 28 29 30 31 32 33 33 32 32 31 30 30 30 29 30 31 31 31 31 30 30 29 28 28 27 28
23 23 21 20 20 20 20 20 20 19 19 19 19 19 19 20 20 19 19 18 17 15 13 11 10 10 9 11 11 10 12 15 16 15 14 15 16 16 17 19 21 21 21 22 22 22 21 21 21 21 22 22 23 24 25 26 26 27 27 27 27 27 28 29 30 31 32 32 32 32 31 31 30 30 30 31 31 31 31 31 30 30 28 27 27 28
25 25 24 23 23 22 21 21 20 19 19 19 19 18 18 18 18 18 18 18 17 16 15 13 12 12 12 14 14 13 12 14 15 15 15 15 16 17 17 19 19 19 20 21 22 22 21 21 21 22 22 23 23 24 25 25 26 27 27 27 27 27 27 27 29 30 32 32 33 33 32 31 31 30 31 32 32 33 33 32 32 30 28 27 27 28
27 27 27 26 25 23 22 22 21 20 20 19 19 18 18 17 16 16 17 17 17 17 16 14 14 13 12 14 14 13 10 10 12 14 14 15 17 18 19 20 20 19 19 21 22 22 22 22 23 23 23 24 24 25 26 26 26 27 27 28 28 27 27 26 27 29 31 32 33 33 33 32 32 31 32 33 33 34 34 34 32 30 28 27 27 27
28 28 29 28 27 27 26 25 23 21 21 20 19 18 17 16 15 16 17 17 17 17 17 17 18 18 19 20 20 19 18 15 13 13 13 14 17 20 19 20 20 19 19 19 20 21 21 22 23 24 24 25 25 26 27 27 27 28 28 29 29 28 27 26 27 28 31 32 34 34 34 33 32 32 33 33 34 35 35 35 33 30 28 27 26 26
28 29 29 28 28 28 28 27 25 23 22 21 21 20 18 17 18 18 18 18 18 19 20 21 22 23 25 26 27 27 26 23 19 16 13 9 13 19 19 19 19 18 18 19 18 19 19 20 22 23 24 24 25 26 27 27 28 28 29 30 30 29 28 27 27 28 30 32 34 35 35 34 33 33 33 34 35 36 36 35 33 30 28 27 26 25
27 27 27 27 27 27 27 26 25 24 23 22 22 21 21 20 20 20 20 20 20 21 22 23 24 25 25 26 25 25 25 24 21 17 15 12 14 18 18 17 17 16 17 17 17 17 17 18 19 20 21 22 24 25 26 26 27 28 29 29 30 30 29 28 28 28 30 32 34 34 35 34 33 33 33 34 36 36 36 35 33 30 29 27 26 26
26 26 25 25 25 26 26 25 25 24 23 23 23 22 22 22 22 22 22 22 22 22 22 22 21 21 22 22 22 22 23 21 19 17 15 13 14 17 17 16 15 14 14 15 16 15 15 16 17 18 19 21 22 23 24 24 25 26 27 28 29 29 29 28 28 29 30 32 33 34 34 34 33 33 34 35 36 37 37 35 33 31 29 28 27 27
30 29 28 27 28 28 28 28 28 27 26 25 24 24 23 22 22 22 22 22 22 21 20 19 17 17 20 19 20 21 21 19 19 18 17 12 12 14 15 14 13 13 13 13 14 15 15 15 15 16 18 20 21 22 22 22 22 23 25 26 27 28 28 28 28 28 29 31 32 34 34 33 33 33 34 35 37 37 37 35 33 31 30 29 28 28
33 33 32 32 32 32 31 31 31 30 30 29 27 26 24 23 22 21 21 21 20 19 18 13 10 11 15 16 18 20 20 19 18 19 18 15 12 11 12 13 13 12 12 13 14 14 15 15 14 15 17 18 20 21 21 21 21 21 22 24 25 27 27 28 28 28 29 30 32 33 33 33 33 33 34 35 37 37 37 35 33 32 31 29 28 28
28 29 30 31 32 32 33 33 33 33 32 31 30 29 27 25 23 21 21 21 19 19 18 13 9 7 8 11 16 20 20 19 18 18 17 14 12 12 13 12 12 12 12 12 12 13 14 15 16 16 17 18 19 20 20 21 20 20 21 22 24 26 26 27 27 27 28 30 31 32 33 33 33 33 34 36 37 37 37 35 34 33 31 30 29 28
22 22 23 24 25 26 27 29 30 31 32 32 31 30 28 27 25 24 23 22 21 20 20 19 16 13 12 16 18 19 19 20 20 18 16 14 14 16 15 13 13 13 12 11 10 11 12 15 17 18 19 19 19 19 21 21 21 20 21 22 23 24 25 26 26 26 28 29 31 32 33 33 34 35 36 37 37 37 37 36 35 34 33 31 30 29
25 24 24 23 22 21 21 22 23 25 26 27 28 28 28 28 28 27 26 24 22 21 21 20 20 19 18 16 13 12 14 18 18 16 14 13 13 15 15 14 15 15 12 8 6 6 8 13 17 19 21 21 21 21 21 22 22 21 21 21 22 23 24 25 25 26 27 29 30 32 33 34 35 36 37 38 38 38 37 37 36 35 34 32 31 30
28 27 26 25 23 22 21 20 20 21 21 22 22 24 25 27 28 28 27 25 23 22 20 18 17 17 16 10 5 3 5 8 8 8 9 10 11 12 13 14 16 16 14 10 4 1 4 7 11 15 18 19 19 20 20 21 22 21 21 20 21 22 23 24 25 26 27 28 29 31 33 35 37 38 39 39 39 39 38 38 37 36 34 32 31 30
26 26 26 26 25 24 23 22 21 21 20 20 20 21 22 24 25 25 24 23 21 20 17 14 13 13 13 10 7 5 3 3 4 6 8 8 9 10 11 14 17 17 16 16 12 6 3 3 5 8 12 14 15 16 18 19 20 20 20 20 21 21 22 23 24 25 27 28 30 32 34 36 37 39 39 40 40 39 39 38 37 36 34 32 30 29
24 24 24 24 24 24 23 23 22 22 22 21 21 21 21 22 22 22 22 21 20 18 16 13 12 11 11 11 10 9 9 8 9 11 13 12 11 10 10 12 14 15 15 17 18 16 10 7 5 5 7 10 12 13 15 17 18 19 19 20 21 22 22 23 24 25 28 30 31 33 35 37 38 39 39 40 39 39 39 37 36 35 34 32 30 29
23 23 23 22 22 22 22 22 22 22 22 22 22 22 22 22 22 22 22 21 20 19 17 16 14 12 11 10 10 11 12 12 13 14 15 15 13 11 11 12 13 13 14 15 16 15 13 13 10 5 4 7 10 12 13 14 15 17 18 20 22 22 22 22 23 25 27 30 32 34 35 37 39 39 39 39 39 39 38 37 35 34 33 32 31 30
22 22 21 20 19 19 19 20 20 21 21 21 22 22 22 22 22 22 22 21 21 20 20 19 18 16 14 12 11 11 13 14 14 14 16 17 16 13 12 13 13 13 12 12 12 12 11 13 13 10 5 5 7 11 12 13 13 14 16 19 22 23 22 21 21 23 27 29 31 33 35 36 38 38 38 38 38 38 37 36 35 34 32 31 31 30
19 17 16 16 16 16 16 17 17 18 19 19 20 20 20 20 19 19 19 19 19 19 19 20 19 19 18 17 16 15 16 16 15 15 16 18 16 14 13 14 14 14 13 12 11 10 9 10 12 13 10 7 6 7 9 11 13 13 14 17 21 23 23 21 20 22 26 28 30 32 34 35 35 36 36 37 37 37 36 35 34 33 32 31 30 30
14 12 13 13 14 15 15 17 17 18 18 19 19 19 18 17 16 15 15 15 16 16 17 17 18 18 18 18 18 18 18 17 17 17 18 19 18 17 16 17 17 16 15 13 11 10 8 7 8 10 11 10 8 6 6 9 11 12 13 15 18 22 23 21 20 21 24 27 29 30 33 33 34 34 34 34 34 35 35 34 33 32 31 30 29 28
13 14 15 15 16 16 17 17 18 18 19 19 19 17 15 13 12 12 13 14 15 16 16 16 16 16 17 17 18 18 18 19 19 21 21 22 22 22 20 19 19 19 18 17 15 13 10 6 4 4 4 8 10 9 7 8 9 10 12 13 16 19 21 20 19 20 23 26 28 30 32 33 33 33 32 32 33 33 33 32 31 29 29 28 27 27
14 16 17 18 18 17 17 17 17 18 18 18 17 16 14 12 11 12 13 15 16 17 17 16 16 17 17 18 18 19 20 21 23 24 25 26 26 26 24 22 22 22 22 20 19 17 14 9 5 2 2 4 8 10 10 9 9 9 10 12 13 16 18 18 18 19 22 25 27 28 30 32 33 33 32 32 32 32 31 30 29 28 28 27 25 24
15 17 18 18 18 18 18 18 18 18 17 16 15 14 12 12 12 13 14 14 15 16 17 17 18 18 19 20 20 22 23 24 26 27 27 28 29 29 27 24 23 23 22 21 20 19 17 14 11 10 8 6 5 6 8 9 10 10 10 9 10 13 16 17 17 18 21 24 26 27 28 30 32 33 32 32 32 32 31 30 29 29 28 28 26 24
14 15 16 17 17 17 18 18 18 18 17 16 14 12 11 11 11 11 12 13 14 15 16 17 18 19 20 22 23 24 25 26 27 28 29 29 30 30 29 26 24 23 22 21 21 20 19 18 16 14 13 10 8 7 7 8 10 12 11 10 9 11 14 16 17 18 20 22 25 26 28 30 31 31 31 31 32 33 33 32 31 30 29 29 28 27
13 14 14 15 15 16 17 17 17 17 16 14 13 12 11 11 11 11 12 13 13 14 15 17 18 19 21 22 23 24 24 25 26 27 28 29 30 30 30 28 26 24 22 21 21 21 21 20 19 17 16 14 13 11 10 9 10 11 13 12 11 10 11 15 17 18 19 21 23 25 27 29 30 31 31 31 32 33 33 33 32 31 30 29 29 28
14 14 14 15 16 16 17 17 17 16 14 13 12 11 11 12 12 13 13 14 14 15 15 16 17 18 19 20 21 21 22 23 24 25 26 28 29 30 30 29 28 25 23 21 19 19 20 20 19 19 19 18 16 14 12 11 9 10 13 13 12 10 7 12 16 19 20 21 22 24 26 29 30 31 31 31 32 32 32 32 32 31 30 30 29 28
13 14 14 15 16 15 14 15 15 15 14 12 12 12 12 13 13 14 14 14 14 15 16 17 17 17 16 16 16 17 17 18 19 21 23 24 26 27 28 28 27 25 23 21 19 17 17 17 18 18 17 17 17 16 16 15 13 12 13 14 15 14 12 13 16 20 21 21 22 23 26 28 30 31 31 30 31 31 30 31 30 29 29 29 29 28
13 13 14 15 15 14 14 14 13 13 13 12 13 13 14 14 14 14 14 14 14 15 16 17 16 14 12 12 12 12 13 14 15 16 18 19 21 22 23 24 24 23 22 21 20 18 16 15 15 15 15 15 16 16 16 17 18 17 15 16 17 18 19 17 19 21 21 21 22 23 26 28 29 29 28 27 28 29 29 30 29 29 28 28 28 28
14 14 14 13 13 12 11 11 11 11 11 12 12 13 14 14 14 14 14 15 15 15 16 15 14 13 12 13 13 13 13 14 14 15 15 16 17 17 18 20 21 21 21 20 20 20 19 18 16 15 15 14 15 16 17 17 19 19 17 17 18 19 19 19 20 22 23 22 23 24 26 27 28 27 25 24 25 27 28 29 29 29 29 29 29 29
14 14 13 12 12 11 11 11 11 11 11 12 12 13 14 14 14 14 15 15 15 15 15 15 15 15 15 15 15 15 14 14 15 15 15 15 15 16 17 18 20 21 21 21 21 20 20 20 19 18 16 15 14 14 16 17 18 19 17 17 19 19 19 19 20 22 24 24 25 25 26 27 25 24 23 23 23 24 26 27 29 29 30 30 30 29
14 13 12 11 11 12 12 12 12 12 12 13 13 14 15 15 15 15 15 15 15 15 15 15 15 15 16 16 16 16 16 15 15 15 15 16 16 16 17 18 19 20 21 21 21 20 20 20 21 20 20 17 14 13 14 16 18 19 18 18 19 20 19 19 21 23 24 25 26 27 28 27 25 23 22 22 21 21 22 24 26 28 29 30 30 29
13 12 11 11 11 12 13 13 13 13 13 13 14 15 15 16 15 15 16 16 16 15 14 14 14 14 14 15 16 17 17 17 16 16 16 16 16 15 15 15 16 17 17 17 17 17 18 19 20 22 22 21 18 14 14 15 17 18 18 18 19 19 19 19 21 23 23 24 26 28 29 28 28 26 25 22 20 19 20 22 24 26 27 29 29 29
12 10 9 10 11 12 13 13 13 13 13 14 14 15 16 16 16 16 16 16 16 15 14 14 13 13 14 15 16 17 17 17 17 16 16 16 15 14 13 13 13 13 12 12 12 13 13 14 17 20 22 23 22 19 16 16 16 17 17 18 19 19 19 19 21 23 24 25 26 27 29 28 27 27 26 23 20 19 20 21 23 25 27 28 28 28
9 9 9 10 11 12 13 13 14 14 14 15 16 16 17 17 17 17 16 16 16 15 15 15 15 15 15 16 16 16 16 16 15 15 15 14 14 13 12 12 11 10 9 8 7 7 6 6 8 12 17 21 23 23 21 18 17 16 16 17 18 19 19 19 21 23 24 25 26 28 28 26 25 24 24 22 20 18 18 19 21 24 26 28 28 27
Wind_Direction
270 272 272 271 272 273 271 270 270 271 271 272 272 272 273 274 275 274 274 274 273 272 271 270 269 269 270 271 270 269 267 265 264 263 261 260 259 258 256 254 251 249 246 243 241 238 236 234 232 230 228 228 228 228 228 229 230 231 232 233 233 233 233 234 235 237 241 244 247 247 244 241 239 239 241 242 242 241 240 240 241 240 238 235 233 233
271 271 270 268 266 266 266 265 265 264 265 267 268 268 269 269 270 271 272 273 273 272 270 269 270 270 268 268 269 269 268 266 264 261 259 258 256 255 254 252 250 248 245 242 238 235 232 230 229 228 227 227 227 227 227 228 229 230 232 233 233 233 234 236 239 242 244 246 246 245 243 240 238 238 239 240 241 240 239 239 240 241 240 239 238 237
273 271 269 266 263 260 261 262 261 259 259 261 263 264 265 265 264 264 266 269 272 274 273 272 273 273 271 269 269 269 269 267 264 261 258 256 254 253 252 251 249 247 245 243 239 236 234 232 231 230 230 230 230 230 230 231 232 233 234 235 237 238 240 242 244 246 247 246 245 243 241 239 237 236 237 238 240 239 239 239 240 241 242 242 242 241
275 273 272 271 268 265 263 263 262 260 258 258 259 260 260 260 260 259 260 262 266 270 272 273 273 273 273 271 269 269 270 268 266 262 258 256 254 252 251 250 249 248 246 245 244 242 240 239 238 238 238 238 238 238 238 239 239 240 240 241 242 244 246 247 248 248 247 245 243 241 240 238 236 235 235 237 238 239 238 238 239 241 243 244 244 244
275 274 274 274 273 271 269 268 267 267 264 261 259 257 255 254 255 257 259 262 264 266 267 269 270 270 270 269 268 269 269 269 267 264 260 257 254 252 251 250 249 249 248 248 247 247 246 245 245 244 244 244 244 244 245 245 245 245 246 246 247 247 248 247 247 245 243 241 240 240 239 237 234 233 234 236 237 237 237 238 239 241 242 244 245 244
275 274 274 274 273 272 272 271 271 271 270 266 261 256 252 251 253 256 259 261 263 264 266 266 267 267 266 265 265 266 267 268 268 266 262 258 255 253 251 251 250 250 249 249 249 248 248 247 246 246 245 245 245 245 245 246 246 247 247 247 247 247 246 244 242 240 238 237 237 238 237 235 231 230 232 234 236 236 236 237 238 238 239 242 244 243
277 276 276 275 273 272 272 271 270 270 270 269 265 260 255 253 254 256 258 259 260 262 263 264 264 264 262 261 262 263 264 266 267 266 263 259 255 252 250 250 250 250 250 249 249 248 248 247 246 245 244 244 244 244 244 244 244 245 245 245 245 244 242 240 237 235 233 233 234 235 235 232 228 227 230 232 234 235 235 236 236 236 235 239 241 240
279 279 278 277 276 275 273 271 269 267 266 266 265 264 261 258 256 255 255 256 257 258 260 261 261 260 259 260 260 260 260 262 264 264 262 259 254 250 248 248 248 249 249 249 248 248 247 246 246 245 244 244 243 243 242 242 242 243 243 242 242 240 239 236 233 231 229 230 232 233 233 229 227 226 228 230 232 233 234 235 235 235 234 236 238 238
279 280 279 277 277 277 276 273 270 267 265 264 263 262 262 261 259 256 254 252 252 253 255 256 257 258 258 259 260 259 257 258 259 260 260 257 254 250 247 246 245 246 246 247 247 247 247 246 246 245 244 243 243 243 242 242 241 241 240 240 239 238 236 234 232 229 228 228 230 232 232 230 228 227 228 229 231 232 233 235 235 234 233 233 235 235
277 277 278 277 275 275 275 274 272 270 268 266 264 261 259 259 260 259 257 254 251 251 251 250 254 258 259 259 257 256 256 256 258 258 257 256 254 251 249 246 244 244 244 245 246 247 247 247 246 246 245 244 243 243 242 241 241 240 239 239 238 237 236 234 232 230 229 229 231 232 233 232 231 230 229 230 230 231 233 234 235 235 233 233 232 232
276 275 276 276 275 273 271 271 272 272 272 271 268 263 257 255 256 258 260 259 258 257 257 257 258 259 259 258 256 254 252 251 252 252 252 251 249 248 247 245 244 244 244 245 245 246 247 247 247 247 246 245 244 243 242 242 241 240 239 238 238 237 236 235 234 233 232 232 232 233 234 235 234 233 232 230 230 231 232 233 235 235 234 232 230 228
275 276 276 275 275 274 271 271 271 271 271 270 268 265 259 253 251 253 256 259 261 262 263 264 263 260 257 256 255 254 250 246 243 242 241 240 238 237 237 239 240 242 244 245 246 247 248 248 248 248 247 246 245 244 243 242 241 241 240 239 238 237 237 236 235 235 234 234 234 235 235 236 236 235 233 231 229 229 231 232 234 235 234 231 227 224
275 276 276 275 274 274 273 272 272 270 267 263 261 261 260 258 255 253 254 256 258 261 263 265 264 261 257 253 251 248 246 244 241 238 235 232 230 229 230 232 235 239 241 243 245 247 248 249 249 249 248 247 246 245 244 242 242 241 240 240 239 238 238 237 237 236 236 236 236 236 235 236 236 235 233 231 229 228 229 231 232 234 233 230 226 222
276 277 277 275 274 274 273 273 273 270 267 263 262 262 263 264 261 257 255 256 256 257 259 260 261 260 257 251 246 242 239 239 240 240 237 233 231 230 231 233 237 240 242 243 244 246 248 248 248 249 249 248 247 246 245 243 242 241 240 240 239 239 239 238 238 238 237 237 236 236 235 235 235 235 233 230 228 227 228 229 231 232 232 230 226 221
276 277 276 275 274 274 274 274 273 272 271 270 270 271 272 270 266 261 258 257 256 256 255 256 257 257 254 248 242 237 234 235 237 238 239 239 238 236 236 238 241 243 243 242 243 245 246 246 245 246 248 248 248 247 246 245 244 242 241 240 240 239 239 239 239 238 238 237 236 235 234 235 235 234 232 230 228 226 226 228 230 232 231 229 226 221
275 275 274 273 273 273 273 274 274 275 275 276 277 278 279 277 273 268 264 261 260 258 254 253 253 254 253 248 241 235 230 231 233 235 240 244 245 243 242 242 243 244 243 241 241 242 242 241 241 242 244 247 249 250 249 248 247 245 243 241 240 240 239 239 239 238 237 236 235 233 233 233 234 233 231 229 227 225 225 227 229 231 231 229 225 220
274 273 271 272 272 272 272 273 274 275 277 279 279 279 279 278 278 277 274 272 269 264 259 254 250 249 252 251 245 236 229 226 228 233 239 245 247 246 244 241 241 241 241 240 239 238 237 236 235 237 240 244 248 250 251 251 250 248 246 244 242 241 239 239 238 237 236 235 233 232 232 232 232 231 229 227 225 224 224 227 230 231 230 228 225 221
273 271 270 269 269 269 270 271 272 273 276 277 278 278 278 278 278 279 279 278 277 275 271 266 261 256 254 254 248 237 227 224 224 228 236 243 246 246 243 239 238 238 239 239 239 238 236 235 234 235 236 240 244 248 250 251 251 250 249 247 244 242 240 239 237 236 235 233 231 230 230 231 231 229 227 225 224 224 225 228 231 231 230 227 225 221
272 270 270 269 269 269 268 267 268 270 272 274 276 278 280 279 280 281 282 283 284 285 285 281 273 267 264 258 255 248 236 230 225 225 234 241 244 244 239 235 233 234 237 238 239 238 237 236 236 236 236 237 240 243 247 249 250 250 249 248 246 244 241 239 237 235 233 231 229 228 228 229 228 226 224 223 224 226 228 230 231 231 229 226 224 222
272 270 269 269 271 271 269 267 266 267 269 272 276 280 283 285 287 289 289 290 290 291 294 290 283 277 275 270 266 261 252 238 229 227 233 240 246 246 239 231 227 229 234 237 238 238 237 238 238 238 238 237 236 238 240 244 247 248 248 248 247 245 243 239 236 234 232 229 227 226 227 227 226 224 221 222 224 227 229 230 230 229 227 225 223 222
270 269 268 268 271 272 271 269 268 268 270 275 280 285 287 290 292 291 289 290 290 293 298 295 291 291 298 297 291 287 281 257 237 233 241 245 248 247 242 232 225 224 230 236 239 240 239 240 241 241 241 240 237 236 236 238 241 244 246 247 247 246 244 240 236 233 230 227 225 225 225 226 224 222 220 221 224 227 228 228 228 226 225 224 223 221
267 267 268 268 269 269 270 271 272 272 274 278 282 284 284 287 288 286 286 287 288 288 289 288 289 293 300 301 299 299 302 296 274 257 257 254 252 250 243 232 224 221 226 234 240 242 243 244 245 246 246 245 242 239 237 236 236 239 242 244 246 246 245 241 237 232 228 226 224 223 224 224 223 220 219 221 224 225 226 225 224 223 222 222 221 219
265 265 267 267 266 267 269 271 273 274 275 277 278 279 280 282 283 283 286 287 287 286 285 285 287 289 290 289 288 290 292 293 287 275 267 262 256 252 245 231 220 217 224 232 237 242 244 246 248 249 250 249 247 244 241 238 237 237 239 242 244 245 244 241 236 231 227 224 223 222 223 223 221 219 219 221 223 223 223 222 221 220 220 219 218 215
266 266 266 265 264 265 267 269 271 272 273 274 275 276 278 280 282 283 284 285 286 286 286 287 287 286 284 283 284 284 284 285 283 275 264 263 261 256 247 230 217 215 224 230 235 239 242 245 247 249 250 250 249 248 245 242 240 239 239 241 242 243 243 240 235 230 226 223 222 222 222 222 220 218 218 220 221 221 220 219 218 217 217 217 214 210
267 267 267 265 264 264 265 266 267 268 270 271 273 275 278 280 281 282 282 282 281 282 282 282 281 279 278 280 280 280 279 280 276 267 254 258 264 261 252 236 220 216 225 230 234 237 238 239 242 245 248 250 251 251 250 247 244 242 241 241 241 241 240 237 233 229 225 222 221 221 221 220 219 218 218 219 219 219 217 216 216 216 216 215 212 207
264 264 265 265 265 264 264 264 264 264 265 267 269 271 274 277 279 279 278 277 276 276 276 274 272 271 273 275 275 274 274 275 271 261 249 252 262 264 258 247 233 226 231 235 237 236 233 233 235 240 244 250 254 255 255 253 250 246 243 241 240 239 237 235 232 227 224 222 220 220 219 218 217 217 217 217 217 216 215 214 214 214 214 213 210 206
263 262 263 263 263 262 262 261 261 261 261 262 262 264 267 270 273 272 269 268 269 270 270 268 267 268 270 270 269 269 270 270 266 259 251 250 257 264 262 257 249 243 243 245 243 236 229 227 231 236 242 248 254 258 259 258 255 250 245 241 238 236 235 233 230 227 223 221 220 219 218 216 216 216 216 215 214 213 212 211 212 212 212 209 207 204
271 269 268 266 265 264 262 260 259 258 258 258 258 259 260 263 264 263 262 261 263 265 264 263 263 266 267 266 266 267 268 267 263 258 253 249 253 261 262 262 258 253 252 253 250 241 233 231 233 237 242 247 252 257 260 261 258 254 248 242 237 234 232 230 228 226 223 221 219 218 217 216 215 216 216 214 212 210 209 209 210 209 208 205 202 200
292 289 286 282 278 275 271 267 263 260 258 256 255 255 256 257 258 258 258 258 257 257 257 257 257 258 260 262 264 265 265 263 261 257 252 248 253 259 262 261 257 253 251 253 253 250 244 243 243 245 247 249 252 255 258 260 259 256 250 243 237 232 229 226 225 224 223 221 220 218 217 216 216 216 215 213 211 209 207 207 207 205 203 201 198 197
301 300 298 295 293 290 287 283 278 272 266 261 257 255 254 254 254 254 255 253 250 248 249 251 252 252 253 257 259 259 256 257 257 255 246 243 250 257 259 256 252 248 242 243 249 254 249 250 251 253 254 253 252 252 254 256 257 255 251 244 237 231 226 223 222 223 223 221 220 219 218 217 216 215 214 212 209 207 206 205 203 201 198 195 194 194
295 295 293 292 291 290 289 288 286 283 279 274 269 264 259 256 255 253 252 250 246 244 245 249 251 250 250 250 244 233 238 245 254 257 248 245 252 257 255 251 248 244 233 223 218 283 253 249 248 249 251 249 247 247 248 250 252 251 248 243 237 230 225 221 221 222 223 222 221 220 218 216 215 213 211 210 207 205 204 203 200 197 193 191 190 190
287 287 287 287 286 285 284 282 281 280 279 277 274 270 266 263 261 258 256 253 250 248 251 256 260 261 259 257 253 249 246 251 281 289 281 273 272 269 258 250 249 245 232 221 222 236 254 254 235 230 230 232 234 238 242 245 246 245 241 237 233 229 226 223 224 225 226 224 222 221 218 216 213 211 209 207 205 203 202 199 197 194 191 188 186 187
280 280 280 280 280 280 278 277 275 274 273 270 268 266 264 263 262 262 261 260 259 258 260 265 271 275 275 271 269 269 271 276 281 288 294 293 291 286 276 265 259 252 240 228 227 232 241 247 241 215 205 215 223 230 237 242 243 240 235 230 229 229 228 228 229 229 226 223 221 219 217 215 212 210 208 205 203 202 200 197 195 193 190 188 186 185
276 275 274 273 273 271 270 269 268 267 265 264 263 262 260 259 259 259 260 261 262 263 264 266 269 273 279 283 284 283 282 280 279 284 291 293 292 289 291 285 278 270 258 241 231 229 234 238 238 224 199 214 228 235 239 242 244 240 232 226 225 227 230 232 232 228 223 218 214 211 210 209 208 207 204 203 201 200 199 197 195 193 192 190 187 185
272 270 270 269 269 267 265 264 262 260 260 259 258 257 256 255 255 255 256 257 259 261 264 265 267 270 274 279 284 286 284 283 283 285 288 290 290 289 291 288 287 284 276 260 241 230 229 232 232 227 211 212 231 242 246 248 251 248 237 226 223 225 228 231 228 223 216 211 206 203 201 201 200 200 199 199 199 199 199 197 195 194 193 192 190 188
270 270 273 276 278 277 275 273 270 268 267 265 262 259 256 254 252 252 253 255 257 260 263 266 268 269 270 272 275 277 279 281 283 284 284 286 287 289 288 284 284 285 284 275 261 245 233 228 227 227 225 219 220 232 243 252 258 258 248 234 226 224 225 227 225 219 211 206 201 198 196 195 194 193 194 195 196 198 199 197 195 193 193 192 192 191
278 281 285 287 288 289 289 288 287 286 287 284 280 274 266 261 258 258 259 259 260 262 265 266 267 267 266 267 268 270 273 276 278 278 277 278 281 283 283 280 280 282 282 281 276 268 255 237 225 223 225 226 223 220 224 242 254 259 257 247 235 228 225 225 223 218 210 204 199 197 194 192 191 190 190 192 194 196 196 195 193 192 191 190 190 191
291 291 288 287 286 286 287 288 289 291 293 293 290 284 279 274 272 272 272 271 269 267 267 267 266 264 263 262 263 265 267 269 271 271 271 271 273 275 276 278 279 279 279 280 280 278 273 261 235 216 218 227 229 228 223 231 242 252 258 256 245 234 227 224 222 217 211 205 200 197 194 192 191 189 187 187 188 188 188 188 188 187 186 186 186 188
295 292 289 286 284 283 282 282 284 286 288 289 288 287 286 286 284 282 281 279 277 274 272 271 269 268 266 265 264 263 263 263 264 265 266 266 266 267 268 271 273 274 275 278 280 279 276 272 264 249 222 225 229 230 230 231 234 243 253 258 252 241 230 224 220 215 210 204 200 196 193 191 190 187 185 184 183 182 181 181 182 182 181 180 180 181
297 295 293 291 288 285 283 282 282 282 282 282 282 283 285 286 286 285 283 281 279 277 275 274 273 272 271 269 267 264 262 260 260 260 261 261 261 261 261 262 264 266 270 273 275 275 275 272 269 266 258 246 233 229 227 223 225 231 238 243 247 242 233 225 219 214 208 203 198 194 191 189 188 186 184 182 181 181 180 179 179 180 180 178 174 173
298 297 296 295 293 290 287 284 283 283 283 285 285 286 288 290 290 288 285 281 277 275 274 273 272 270 269 266 264 262 260 258 257 256 256 257 258 257 257 256 256 258 261 265 268 270 271 269 268 266 262 257 252 245 233 219 216 219 222 222 230 236 234 227 220 213 206 201 197 194 190 188 186 184 182 182 182 183 183 181 180 180 180 181 179 175
298 297 297 296 296 295 293 291 289 288 289 291 294 296 297 297 296 294 290 285 281 278 275 273 271 269 267 264 262 260 258 256 255 254 254 255 256 256 255 253 252 252 253 257 261 264 265 266 265 262 260 258 256 254 247 231 217 213 214 216 221 229 235 229 222 213 205 200 196 193 190 186 184 183 182 182 182 183 184 184 182 181 180 182 183 182
299 298 299 299 298 298 297 297 296 294 292 291 293 295 297 297 295 293 290 287 284 282 280 277 274 271 269 266 264 262 259 257 255 254 253 254 255 255 254 252 250 248 248 249 253 257 260 261 260 258 256 255 255 256 258 251 234 217 213 212 208 205 213 222 219 213 206 200 195 192 189 186 185 183 183 182 182 182 183 184 184 184 184 184 183 184
301 302 303 303 303 303 303 302 301 301 301 302 301 298 293 290 287 284 283 282 281 281 280 280 279 278 275 272 269 267 265 263 260 257 255 253 253 253 253 252 250 247 245 243 245 249 253 256 257 256 253 251 250 252 256 257 252 239 222 212 207 205 208 214 214 209 205 201 196 192 190 188 185 184 182 181 181 181 180 182 183 183 185 186 185 185
298 299 300 300 300 300 299 300 302 304 306 305 301 296 290 286 282 280 279 279 278 278 277 278 279 279 276 273 272 274 275 274 272 269 265 261 256 253 251 249 247 245 243 241 241 244 248 252 255 257 256 251 247 246 247 250 250 246 231 215 210 211 216 217 213 207 202 199 196 193 191 188 185 181 178 178 178 179 180 181 181 182 184 186 186 186
293 293 293 293 293 292 291 294 298 301 301 297 294 292 289 287 286 284 282 280 279 278 277 276 276 275 274 275 275 276 276 276 277 276 274 270 265 258 253 250 248 246 244 242 243 244 246 248 252 256 258 255 250 246 242 239 239 238 228 214 208 209 212 215 212 207 202 198 196 195 192 189 184 179 175 175 176 178 180 181 182 182 184 185 187 187
292 291 292 293 295 296 297 299 301 301 299 297 294 292 290 289 287 285 283 281 280 280 280 279 277 274 272 271 271 270 270 271 271 271 271 269 265 260 256 253 252 251 250 248 246 246 245 246 247 249 250 251 250 248 243 237 234 231 224 210 202 201 205 207 208 206 203 200 197 195 192 187 182 178 176 174 175 177 180 182 183 184 185 186 187 187
291 292 294 297 300 301 301 301 300 298 295 293 292 290 289 286 284 283 282 280 278 277 277 276 274 271 269 268 266 264 263 263 263 264 264 264 261 255 250 248 248 249 250 250 249 247 246 245 244 244 244 244 245 246 244 241 237 234 228 210 200 199 202 204 205 205 202 200 199 196 191 186 182 179 175 173 173 176 178 180 182 184 186 187 187 187
288 293 298 302 303 302 300 298 296 293 292 291 290 290 288 286 284 282 281 280 277 272 267 265 266 266 266 265 263 261 259 258 258 257 257 258 256 252 245 239 238 240 243 245 248 249 249 248 246 244 243 243 243 244 245 244 241 237 230 214 203 199 199 201 203 203 201 199 198 197 194 190 187 183 177 173 172 174 175 178 181 184 186 188 188 188
289 297 304 307 305 302 298 296 294 292 291 291 291 291 290 289 288 285 283 280 275 269 264 262 262 264 265 264 262 259 257 255 254 254 253 252 251 249 245 239 232 227 226 230 236 242 247 251 253 251 246 244 242 241 243 244 243 238 230 217 206 199 198 199 201 201 199 198 197 197 195 192 189 186 181 176 173 171 172 175 179 183 185 187 188 188
302 307 309 307 304 300 297 295 293 291 290 291 291 292 291 291 290 288 284 279 273 269 265 263 262 261 261 262 262 261 259 258 257 255 253 251 250 249 250 248 240 228 214 212 216 223 231 243 253 255 252 249 244 239 237 238 239 236 228 216 205 200 199 198 199 200 198 197 196 196 194 191 189 186 183 178 173 170 170 173 177 181 184 185 186 187
Height
743 742 742 741 741 740 739 739 739 738 737 737 736 736 736 735 734 733 732 732 732 732 732 732 731 731 730 730 730 730 730 730 730 730 730 730 730 730 730 731 731 731 732 732 733 733 734 734 735 736 737 738 739 740 740 741 742 744 744 745 746 746 747 748 748 749 750 750 751 751 752 753 754 754 754 754 755 755 756 757 758 758 759 760 760 761
742 741 740 740 740 739 737 736 737 736 735 735 734 734 734 733 732 731 730 730 730 730 730 730 730 730 729 729 728 728 728 728 728 728 728 728 728 729 729 729 730 730 730 730 731 731 732 732 733 734 735 736 737 738 739 740 740 741 742 743 744 744 745 746 746 747 747 748 749 750 750 751 752 752 752 753 753 754 754 755 756 757 757 758 759 760
740 739 738 738 737 736 735 734 734 734 733 732 732 731 731 731 731 730 730 729 728 728 728 728 728 728 727 727 726 726 726 726 726 726 726 727 727 727 727 728 728 728 729 729 730 730 730 731 732 732 733 734 735 736 737 738 739 740 740 741 742 742 743 743 744 745 745 746 747 747 748 749 750 750 751 751 751 752 753 753 754 755 756 756 757 758
739 738 736 736 735 734 733 732 732 731 731 730 730 729 729 729 729 728 728 728 728 727 727 727 727 726 726 725 725 725 724 724 725 725 725 725 725 725 726 726 726 727 727 728 728 729 729 730 730 731 732 733 734 734 735 736 736 737 738 739 739 740 740 741 742 742 743 744 745 745 746 747 748 749 749 749 750 750 751 752 753 753 754 755 755 756
738 737 735 735 734 732 731 731 730 730 729 728 727 727 727 726 726 726 726 726 726 726 726 726 726 725 725 724 723 723 722 722 722 723 723 723 723 724 724 724 725 725 725 726 726 727 727 728 729 729 730 731 731 732 733 734 735 735 735 736 737 737 738 739 739 740 741 742 743 744 745 745 746 747 747 747 748 749 750 750 751 752 752 753 754 755
736 735 734 734 732 730 730 729 729 728 727 726 725 725 725 724 724 724 724 724 724 724 724 724 724 724 723 722 722 721 720 720 720 721 721 721 721 722 722 722 723 723 723 724 724 725 725 726 727 727 728 729 730 730 731 731 732 733 733 734 735 735 735 736 737 738 739 740 740 741 743 744 744 745 745 745 746 747 748 749 749 750 751 751 752 753
735 734 733 732 730 729 728 727 727 727 726 725 724 723 723 722 722 722 721 722 722 722 721 721 721 721 721 720 720 719 719 718 718 718 719 719 719 720 720 720 720 721 721 722 722 723 723 724 725 725 726 726 727 728 728 729 730 730 731 731 732 733 733 734 735 736 737 738 739 740 741 741 742 743 743 744 745 745 746 747 748 749 749 750 750 751
734 732 732 731 729 728 727 726 725 725 725 724 723 722 721 720 720 720 719 719 719 720 720 719 719 719 719 718 718 718 717 716 716 716 716 717 717 717 718 718 719 719 719 720 720 721 721 722 722 723 724 724 725 725 726 727 727 728 729 729 730 731 731 732 733 734 735 736 737 738 739 740 740 741 741 742 743 744 744 745 746 747 748 748 749 749
734 732 731 730 729 727 725 724 723 723 723 722 721 720 719 718 718 717 717 717 717 717 717 717 717 717 716 716 716 716 715 715 714 714 714 714 715 715 715 716 716 717 717 718 718 719 719 720 720 721 721 722 723 723 724 725 725 726 727 727 728 729 730 730 731 732 733 734 735 736 737 738 738 739 740 740 741 742 742 743 744 745 746 746 747 748
734 732 730 729 728 727 725 723 721 722 722 720 719 718 718 717 716 715 715 715 715 715 715 715 715 715 714 714 714 714 714 713 712 712 712 712 712 712 713 713 714 714 715 715 716 717 717 718 718 719 719 720 720 721 722 723 723 724 725 725 726 727 728 729 729 730 731 732 733 734 735 735 736 737 738 738 739 740 741 741 742 743 744 745 745 746
732 731 730 728 726 725 725 722 720 720 720 719 717 716 716 715 715 715 714 713 713 713 713 713 713 713 713 712 712 712 712 711 710 710 710 710 710 710 711 711 711 712 713 713 714 714 715 715 716 716 717 718 718 719 720 720 721 722 723 723 724 725 726 726 727 728 729 730 731 732 733 733 734 735 735 736 737 738 739 740 740 741 742 743 744 745
731 730 728 726 725 724 723 721 720 719 719 718 716 715 714 714 714 714 713 711 711 711 711 711 711 711 710 710 710 710 710 710 709 709 709 709 709 709 709 710 710 710 710 711 711 712 712 713 713 714 715 715 716 716 717 718 719 720 720 721 722 723 724 724 725 726 727 728 729 730 730 731 732 732 733 734 735 736 737 738 739 740 740 741 742 743
730 729 727 725 724 722 721 720 719 718 717 716 715 714 712 712 713 712 711 710 709 710 710 710 709 709 708 708 708 708 709 708 708 707 707 707 707 708 708 708 708 708 708 709 709 709 709 710 710 711 712 712 713 714 715 715 716 717 718 719 720 720 721 722 723 724 725 725 726 727 728 729 730 730 731 732 733 734 735 736 737 738 739 740 740 741
729 728 726 724 722 721 720 719 718 716 715 714 713 712 711 711 711 710 709 708 707 708 708 708 707 706 706 705 705 705 706 706 706 706 705 705 705 706 706 706 706 706 706 706 706 706 706 707 707 708 708 709 710 711 711 712 713 714 715 716 717 718 718 719 720 721 722 723 724 725 726 726 727 728 729 730 731 732 733 734 735 736 737 738 739 740
728 727 725 723 721 720 720 719 717 716 714 713 713 712 711 710 709 709 708 706 705 706 706 705 705 704 703 703 703 703 703 704 704 704 704 704 704 704 705 705 705 705 705 705 704 704 704 705 705 705 705 705 706 707 708 709 710 711 712 713 714 715 715 716 717 718 720 720 721 722 723 724 725 726 727 728 729 730 731 732 733 734 735 736 737 738
727 726 724 722 721 720 719 718 717 715 714 713 712 711 710 709 708 707 706 705 704 704 704 703 702 701 700 700 700 700 701 701 702 702 702 702 702 703 703 704 703 703 703 702 702 702 702 702 702 702 702 702 703 704 705 706 707 708 709 710 711 712 713 714 715 715 717 718 719 720 721 722 723 723 724 725 726 728 729 730 731 732 733 735 735 737
726 725 723 721 720 719 718 718 717 715 714 713 712 711 710 709 708 707 706 705 704 703 702 701 700 699 698 698 698 698 698 699 700 700 700 700 700 700 701 702 701 701 700 700 700 700 700 700 700 700 700 700 700 701 702 703 704 705 706 707 708 709 710 710 712 713 714 715 716 717 718 719 720 721 722 723 724 725 727 728 729 730 731 733 734 735
725 724 722 720 719 718 718 717 716 715 714 714 712 711 710 709 708 707 706 705 703 702 701 700 700 698 697 696 696 697 696 697 697 698 698 698 698 698 699 699 699 699 698 698 698 698 699 699 699 699 699 699 699 699 699 700 701 702 703 704 705 706 707 708 709 710 711 712 713 715 716 717 718 719 720 721 722 724 725 726 727 728 730 731 732 733
723 722 721 719 718 717 716 716 715 715 714 713 712 711 710 708 707 707 705 704 703 702 701 700 699 698 697 696 695 696 696 696 696 696 696 696 695 696 697 697 697 696 696 696 696 697 697 697 697 697 697 697 697 697 697 698 698 699 700 701 702 703 704 705 706 707 708 710 711 712 713 714 715 717 718 719 720 721 723 724 725 726 728 729 730 731
722 721 720 719 717 715 715 714 714 714 713 712 712 711 710 708 708 707 705 705 704 702 701 701 699 698 696 695 695 695 695 695 695 695 694 694 694 694 695 695 695 694 694 694 694 695 695 695 695 695 695 696 696 696 696 696 696 697 697 698 699 700 701 702 703 704 705 707 708 710 711 712 713 715 716 717 718 720 721 722 723 725 726 727 728 730
721 720 718 718 717 715 713 712 712 713 712 712 711 710 709 708 708 707 706 705 704 703 702 701 699 697 697 696 695 695 696 695 695 694 693 692 692 692 692 692 692 692 692 691 692 693 693 693 693 693 694 694 694 694 695 694 695 695 695 696 697 697 698 700 700 702 703 704 705 707 708 710 711 712 714 715 716 718 719 720 721 723 724 725 726 728
720 718 717 718 717 715 712 711 712 712 712 711 710 710 709 708 708 706 705 705 705 704 702 701 699 698 697 696 695 695 696 696 695 694 693 691 689 689 690 690 690 690 690 689 690 690 691 691 691 691 691 692 692 692 693 693 693 693 693 694 694 695 696 697 698 699 700 701 703 705 706 707 709 710 712 713 715 716 717 718 720 721 722 724 725 726
718 716 715 716 715 714 712 711 711 711 711 710 710 709 708 708 707 706 705 705 704 703 701 700 699 698 697 695 695 694 694 694 695 695 694 691 688 687 688 687 687 687 687 687 688 689 689 689 689 689 689 690 690 690 690 691 691 691 692 692 692 693 694 695 695 696 698 699 700 702 704 705 707 708 710 711 713 714 715 716 718 719 720 722 723 725
716 715 714 713 713 712 711 710 710 710 710 709 709 708 707 707 706 705 705 704 703 702 701 700 698 697 695 694 694 693 692 692 693 694 693 690 687 686 686 686 685 685 685 685 686 687 687 687 687 687 687 688 688 688 688 689 689 690 690 690 690 691 691 692 693 694 695 697 698 700 701 703 705 706 708 709 710 712 713 714 716 717 719 720 722 723
714 713 711 711 710 710 710 709 709 709 709 708 708 707 706 706 705 705 704 703 703 701 700 699 698 695 693 693 693 691 690 691 692 692 691 689 687 686 685 685 684 684 683 684 685 685 685 685 685 686 686 685 685 686 686 687 687 687 687 688 688 689 689 690 691 692 693 695 696 698 699 701 703 704 706 707 709 710 711 712 714 715 717 718 720 722
711 710 709 709 708 708 707 707 707 707 707 707 706 706 706 705 705 704 703 702 702 701 700 698 696 694 693 693 692 690 689 690 690 690 689 688 686 685 684 684 683 683 682 683 683 684 684 684 684 684 684 684 684 684 684 685 685 685 685 685 686 687 687 688 689 690 691 693 694 696 697 699 701 702 704 705 707 708 709 711 712 714 715 717 719 720
708 708 707 706 706 705 705 705 704 705 705 705 705 705 705 705 704 703 701 701 701 700 699 696 694 693 692 692 690 689 688 689 688 688 687 687 686 684 683 683 683 683 682 682 682 682 682 682 683 683 683 682 682 682 682 683 683 683 683 683 684 685 685 686 687 688 690 691 692 694 695 697 699 700 702 704 705 706 707 709 710 712 714 715 717 719
706 705 705 704 703 703 702 702 701 701 701 701 702 702 703 703 702 700 698 699 700 700 697 695 693 692 691 690 688 687 687 687 686 685 686 686 685 683 682 683 683 682 682 682 681 681 680 680 681 681 681 681 681 681 681 681 681 681 681 682 682 683 684 685 686 687 688 689 691 692 694 695 697 699 700 702 703 704 706 707 709 710 712 714 715 717
704 703 702 702 701 700 699 699 699 698 698 698 699 699 700 700 699 697 696 697 698 697 695 693 692 691 690 688 687 686 686 685 684 684 684 685 683 681 681 682 682 682 682 682 681 680 679 679 679 680 680 680 680 680 680 680 680 680 680 680 680 681 682 683 685 685 687 688 689 690 692 694 695 697 698 700 701 703 704 705 707 709 711 712 714 715
702 701 700 700 699 698 698 697 696 695 695 695 695 696 696 696 695 695 694 695 695 694 691 690 690 689 688 687 685 684 683 682 682 683 683 683 680 679 680 681 681 680 681 681 680 679 678 677 678 678 678 678 679 679 678 678 678 678 678 679 679 680 680 682 683 684 685 686 688 689 690 692 693 695 696 698 699 700 702 703 705 707 709 710 712 713
700 699 698 697 697 696 696 695 695 694 694 693 693 693 693 693 692 691 691 691 691 690 688 687 687 686 685 685 683 681 680 680 681 682 682 681 680 679 680 680 679 678 679 680 680 678 676 676 676 676 676 676 677 677 677 677 676 677 677 678 678 679 679 680 681 683 684 685 686 687 689 690 691 693 694 696 697 699 700 701 703 705 706 708 710 711
699 698 697 696 695 695 694 693 693 692 692 692 691 691 691 690 690 689 688 688 687 686 685 685 684 684 683 682 681 679 678 678 679 680 681 680 679 679 679 679 677 677 677 677 677 676 675 675 675 675 675 675 675 675 675 675 675 675 676 677 677 678 678 679 680 681 682 683 685 686 687 688 690 691 692 694 695 696 698 700 701 703 704 706 707 709
698 697 696 695 694 693 693 692 691 691 690 690 690 689 689 688 688 687 686 686 685 685 684 683 683 682 681 681 680 678 677 677 678 679 680 680 680 679 679 678 677 676 676 675 675 675 675 674 674 674 674 674 675 675 675 674 674 674 675 675 676 677 677 678 679 680 681 682 683 684 685 686 688 689 690 692 693 695 696 698 700 701 702 704 705 707
695 695 694 693 692 692 691 690 690 689 689 688 687 687 686 686 685 685 685 684 684 683 682 682 681 681 680 680 679 678 677 677 678 679 679 679 679 679 678 678 677 676 675 675 674 673 673 673 673 673 673 673 673 673 674 673 673 673 674 674 675 676 677 677 678 678 679 680 681 682 684 685 686 687 689 690 692 693 695 696 698 700 701 702 703 705
693 693 692 691 690 690 689 689 688 687 686 685 685 684 684 683 683 682 682 682 681 681 681 680 680 680 680 679 678 678 677 677 678 679 679 678 678 678 678 677 676 676 675 674 673 672 671 671 671 672 672 672 672 672 672 672 672 672 672 673 674 675 676 676 677 677 678 679 680 681 682 683 685 686 687 689 690 692 693 695 697 698 700 701 702 703
691 691 690 690 689 688 688 687 686 686 685 684 683 682 681 681 680 680 680 680 680 680 680 679 679 679 679 678 678 677 677 677 678 678 678 678 678 678 677 676 675 676 675 674 673 671 670 670 670 670 670 671 671 671 671 671 671 671 672 672 673 674 675 675 676 676 677 678 678 679 680 682 683 685 686 687 689 690 692 694 696 697 699 700 701 702
690 689 689 689 688 688 687 686 685 684 684 683 682 681 680 679 678 678 678 678 678 678 678 678 678 678 677 677 677 677 676 677 677 678 678 678 678 678 677 676 675 675 675 674 673 672 670 669 669 669 669 669 670 670 670 670 670 670 670 671 672 673 673 674 675 676 676 676 677 678 679 680 682 683 685 686 688 690 692 694 695 696 698 699 700 702
689 689 688 688 687 687 686 685 684 683 682 681 681 680 678 677 677 676 676 677 677 677 677 677 677 676 676 676 676 676 676 676 676 676 677 677 677 677 676 675 674 674 673 673 673 672 671 669 668 667 667 668 668 669 669 669 669 669 670 670 671 672 672 673 674 675 675 676 676 677 678 680 681 682 684 686 688 690 692 694 695 696 698 699 700 701
688 688 687 686 686 685 685 684 683 682 681 680 679 679 677 677 676 676 676 676 676 676 676 676 675 675 675 675 675 675 675 675 675 675 675 675 675 675 675 675 674 672 672 672 672 671 670 669 668 667 667 667 667 668 668 668 668 668 669 670 670 671 671 672 673 674 675 675 676 677 678 679 680 681 683 684 686 688 690 692 694 695 696 698 699 701
688 687 686 685 685 684 684 683 682 681 680 679 678 678 677 677 676 676 676 676 676 675 675 675 675 674 674 674 674 674 674 674 674 674 674 673 673 673 673 673 673 672 671 671 670 670 670 669 668 668 668 667 667 667 667 667 667 668 669 670 670 670 671 672 672 673 674 674 675 676 677 678 679 680 681 683 685 686 688 690 691 693 694 695 697 699
687 686 686 685 685 684 683 682 681 680 679 678 677 677 677 676 676 675 675 675 675 675 675 674 674 673 673 672 672 672 671 671 671 671 671 671 671 671 671 671 671 671 671 670 670 669 669 669 668 668 668 667 667 667 667 667 667 668 669 669 670 670 670 671 672 673 673 674 674 675 676 677 678 679 680 682 683 685 686 688 690 691 693 694 695 696
686 686 685 685 684 683 682 681 680 680 679 678 677 677 676 676 675 675 675 675 674 674 674 674 673 672 671 670 670 669 669 669 669 669 669 668 668 668 668 668 669 669 669 669 669 668 668 668 668 667 667 667 667 667 666 667 667 667 668 668 669 670 671 671 672 672 673 673 674 674 675 676 677 678 679 681 682 684 685 687 688 690 691 693 694 695
686 685 685 685 684 683 682 681 680 679 679 678 677 676 676 676 675 675 675 674 674 673 673 672 672 671 670 669 668 667 667 667 666 666 666 666 666 665 666 666 666 667 667 668 667 667 667 667 667 666 665 666 666 666 666 666 667 667 667 668 669 670 671 671 671 672 673 673 673 674 675 675 676 677 678 680 681 683 685 686 688 689 690 691 693 694
685 685 685 684 683 683 682 681 680 679 678 677 676 676 676 676 675 675 674 674 673 673 672 671 671 670 669 667 666 665 665 665 665 664 664 664 664 664 663 664 664 665 665 665 665 665 665 665 665 665 664 665 665 665 665 665 666 666 667 667 668 669 669 670 670 671 672 672 673 674 674 675 675 676 678 679 680 682 684 685 687 688 690 691 692 693
685 684 684 683 682 682 681 680 680 679 678 677 676 676 675 675 675 674 674 673 672 671 671 670 670 669 667 666 665 665 664 663 663 662 662 662 661 661 661 661 662 662 663 663 663 664 664 664 664 663 663 663 663 663 664 665 665 665 666 666 667 667 668 669 669 670 671 671 672 673 674 674 675 676 677 679 680 681 683 684 685 687 689 690 691 692
684 683 683 682 681 681 680 679 679 678 677 677 676 675 675 675 674 674 673 672 671 670 670 669 669 668 666 665 664 664 663 662 661 661 661 660 660 660 659 660 660 660 660 661 661 662 662 662 662 663 663 662 662 662 662 663 664 664 664 665 665 666 667 668 668 669 669 670 671 672 673 674 675 676 677 678 679 680 681 683 684 685 687 688 690 691
683 682 682 681 681 680 679 679 678 678 677 676 675 675 675 674 673 673 672 671 670 669 669 668 667 666 665 664 663 662 662 661 660 660 659 659 659 659 658 658 658 658 659 659 659 659 660 660 661 661 661 661 661 661 661 661 662 662 662 662 663 664 665 666 667 667 668 669 670 671 672 673 675 675 676 677 679 680 681 682 683 684 685 687 688 690
682 682 681 680 680 680 679 678 678 677 676 675 675 674 673 673 672 671 670 670 669 668 668 667 666 665 664 663 662 661 660 660 659 658 658 658 657 657 657 657 656 656 657 657 657 657 658 658 659 659 660 660 660 659 659 660 660 660 660 660 661 662 663 664 665 666 667 668 669 669 670 672 673 674 675 676 678 680 681 682 683 684 685 686 687 689
681 681 680 680 680 679 679 678 677 677 676 675 674 673 672 671 671 670 669 668 667 667 666 665 665 664 662 661 660 660 659 658 657 657 656 656 656 655 655 655 655 655 655 655 655 656 656 656 656 657 657 658 658 658 658 658 658 658 659 659 659 660 661 662 663 664 665 666 667 668 669 670 671 672 673 675 677 678 680 681 682 683 684 685 686 688
680 680 680 680 679 679 678 677 677 676 675 674 673 672 671 670 669 668 668 667 666 665 664 664 663 662 661 660 659 658 657 656 655 655 655 654 654 654 654 654 654 654 654 654 655 655 655 655 654 654 654 655 655 656 656 656 656 657 657 657 658 658 659 660 661 662 664 665 666 667 668 669 670 671 672 673 675 676 678 680 681 682 683 685 686 687
680 680 679 679 679 679 678 677 676 675 674 673 672 671 670 669 668 667 666 665 665 664 663 662 661 660 659 658 657 656 655 655 654 653 653 653 652 652 652 652 652 652 652 653 653 653 654 653 653 652 651 651 652 653 654 655 655 655 656 656 656 656 658 659 660 661 662 663 665 666 667 669 670 671 671 672 674 675 677 678 680 681 682 683 685 686